DW6368 Weather Reports


Display with metric or nautical units.
time (UTC)temp
F
wind
direction
speed
MPH
gust
MPH
rain 1hr
in
rain 24hr
in
rain mn
in
humidity
%
barometer
mb
20260507231802 76 222 4.0 10.0 0.00 0.00 0.00 67 1012.7
20260507225803 76 225 3.0 10.0 0.00 0.00 0.00 65 1012.7
20260507224803 76 226 5.0 11.0 0.00 0.00 0.00 66 1012.7
20260507222802 76 191 2.0 9.0 0.00 0.00 0.00 67 1013.2
20260507221803 75 225 3.0 10.0 0.00 0.00 0.00 69 1013.2
20260507215803 75 222 3.0 13.0 0.00 0.00 0.00 68 1013.4
20260507214802 75 234 3.0 12.0 0.00 0.00 0.00 69 1013.5
20260507212823 74 191 2.0 10.0 0.00 0.00 0.00 70 1013.6
20260507211803 74 215 4.0 7.0 0.00 0.00 0.00 69 1013.8
20260507205824 73 217 3.0 10.0 0.00 0.00 0.00 71 1014.2
20260507204823 73 227 4.0 12.0 0.00 0.00 0.00 70 1014.1
20260507202803 73 221 2.0 10.0 0.00 0.00 0.00 71 1014.4
20260507201802 73 220 3.0 11.0 0.00 0.00 0.00 72 1014.4
20260507195803 72 211 4.0 9.0 0.00 0.00 0.00 72 1014.6
20260507194802 73 223 3.0 11.0 0.00 0.00 0.00 71 1014.7
20260507192803 74 224 4.0 7.0 0.00 0.00 0.00 71 1014.8
20260507191845 74 203 2.0 7.0 0.00 0.00 0.00 71 1015.1
20260507185802 73 216 3.0 9.0 0.00 0.00 0.00 73 1015.1
20260507184803 72 233 2.0 9.0 0.00 0.00 0.00 72 1015.2
20260507182823 73 239 2.0 6.0 0.00 0.00 0.00 72 1015.3
20260507181803 72 214 3.0 7.0 0.00 0.00 0.00 72 1015.3
20260507175802 72 223 2.0 7.0 0.00 0.00 0.00 74 1015.3
20260507172803 71 177 2.0 6.0 0.00 0.00 0.00 74 1015.5
20260507171803 71 245 3.0 7.0 0.00 0.00 0.00 73 1015.4
20260507165802 71 240 3.0 9.0 0.00 0.00 0.00 72 1015.5
20260507164803 72 212 3.0 7.0 0.00 0.00 0.00 72 1015.4
20260507162803 71 245 2.0 5.0 0.00 0.00 0.00 74 1015.5
20260507161803 71 209 1.0 4.0 0.00 0.00 0.00 75 1015.5
20260507155803 69 77 3.0 5.0 0.00 0.00 0.00 77 1015.6
20260507154802 68 212 1.0 5.0 0.00 0.00 0.00 79 1015.7
20260507152803 66 154 2.0 4.0 0.00 0.00 0.00 83 1015.7
20260507151823 65 55 1.0 4.0 0.00 0.00 0.00 86 1015.7
20260507145803 63 90 1.0 2.0 0.00 0.00 0.00 92 1015.8
20260507144803 62 59 1.0 2.0 0.00 0.00 0.00 96 1015.8
20260507142824 59 9 1.0 2.0 0.00 0.00 0.00 100 1015.5
20260507141824 58 320 0.0 1.0 0.00 0.00 0.00 100 1015.4
20260507135803 55 30 1.0 1.0 0.00 0.00 0.00 99 1015.3
20260507134803 55 43 0.0 1.0 0.00 0.00 0.00 98 1015.3
20260507132803 54 43 0.0 1.0 0.00 0.00 0.00 97 1015.1
20260507131803 54 52 0.0 1.0 0.00 0.00 0.00 97 1015.1
20260507125845 54 23 0.0 1.0 0.00 0.00 0.00 97 1014.8
20260507124824 54 34 0.0 1.0 0.00 0.00 0.00 97 1014.8
20260507122803 54 178 0.0 1.0 0.00 0.00 0.00 96 1014.9
20260507121824 54 51 0.0 1.0 0.00 0.00 0.00 96 1014.8
20260507115802 54 17 0.0 1.0 0.00 0.00 0.00 96 1014.9
20260507114802 54 30 0.0 1.0 0.00 0.00 0.00 96 1014.9
20260507112802 55 265 0.0 1.0 0.00 0.00 0.00 96 1015.0
20260507111824 55 45 1.0 1.0 0.00 0.00 0.00 96 1015.0
20260507105824 55 9 0.0 0.0 0.00 0.00 0.00 95 1015.2
20260507104803 55 265 0.0 1.0 0.00 0.00 0.00 95 1015.2
20260507102803 55 51 0.0 1.0 0.00 0.00 0.00 95 1015.3
20260507101845 56 231 0.0 1.0 0.00 0.00 0.00 95 1015.3
20260507095803 56 32 0.0 1.0 0.00 0.00 0.00 94 1015.3
20260507094803 56 13 0.0 1.0 0.00 0.00 0.00 94 1015.4
20260507092803 56 355 0.0 1.0 0.00 0.00 0.00 94 1015.5
20260507091803 57 14 0.0 1.0 0.00 0.00 0.00 94 1015.7
20260507085802 57 9 0.0 1.0 0.00 0.00 0.00 93 1015.8
20260507084803 57 41 0.0 1.0 0.00 0.00 0.00 93 1015.8
20260507082823 58 139 0.0 1.0 0.00 0.00 0.00 93 1016.0
20260507081803 58 51 0.0 1.0 0.00 0.00 0.00 92 1016.1
20260507075824 58 16 0.0 2.0 0.00 0.12 0.00 92 1016.2
20260507074803 58 335 0.0 2.0 0.00 0.00 0.00 91 1016.2
20260507072803 59 26 0.0 2.0 0.00 0.00 0.00 90 1016.3
20260507071803 59 349 0.0 2.0 0.00 0.00 0.00 89 1016.3
20260507065803 60 13 0.0 1.0 0.00 0.00 0.00 88 1016.4
20260507064803 60 18 0.0 1.0 0.00 0.00 0.00 88 1016.3
20260507062803 60 322 0.0 3.0 0.00 0.00 0.00 88 1016.3
20260507061802 60 320 1.0 4.0 0.00 0.00 0.00 88 1016.4
20260507055803 60 46 1.0 2.0 0.00 0.00 0.00 86 1016.5
20260507054803 61 14 0.0 1.0 0.00 0.00 0.00 86 1016.5
20260507052803 61 5 1.0 2.0 0.00 0.00 0.00 84 1016.4
20260507051802 61 38 1.0 4.0 0.00 0.00 0.00 84 1016.5
20260507045824 62 302 2.0 3.0 0.00 0.00 0.00 83 1016.4
20260507044803 62 325 1.0 4.0 0.00 0.00 0.00 84 1016.4
20260507042803 63 359 1.0 5.0 0.00 0.00 0.00 83 1016.3
20260507041802 63 308 2.0 5.0 0.00 0.00 0.00 83 1016.3
20260507035802 63 307 1.0 4.0 0.00 0.00 0.00 79 1016.1
20260507034803 64 307 2.0 5.0 0.00 0.00 0.00 77 1016.0
20260507032803 64 308 3.0 5.0 0.00 0.00 0.00 75 1015.8
20260507031803 64 317 1.0 5.0 0.00 0.00 0.00 75 1015.6
20260507025802 65 301 4.0 10.0 0.00 0.00 0.00 73 1015.5
20260507024803 65 297 5.0 10.0 0.00 0.00 0.00 74 1015.4
20260507015803 69 283 5.0 10.0 0.00 0.00 0.00 66 1014.9
20260507014802 70 313 3.0 9.0 0.00 0.00 0.00 65 1014.9
20260507012803 70 301 4.0 11.0 0.00 0.00 0.00 66 1014.7
20260507011824 70 283 5.0 12.0 0.00 0.00 0.00 66 1014.6
20260507005803 71 285 4.0 11.0 0.00 0.00 0.00 65 1014.5
20260507004802 72 303 7.0 13.0 0.00 0.00 0.00 63 1014.5
20260507002802 73 277 7.0 12.0 0.00 0.00 0.00 58 1014.5
20260507001803 75 293 6.0 12.0 0.00 0.00 0.00 57 1014.4
20260506235802 77 228 3.0 9.0 0.00 0.00 0.00 57 1014.4
20260506234803 76 240 2.0 9.0 0.00 0.00 0.00 57 1014.4
20260506232803 76 224 5.0 13.0 0.00 0.00 0.00 58 1014.4